This demonstration page uses our WeatherBlox Daily Observations layout. Learn more.

Left ArrowRight Arrow

31.84235, -102.49876

Hourly Observations for June 3, 2022

Temp ( °F °C ) Dew Point ( °F °C ) Humidity (%) Winds ( mph kmh ) Pressure ( in mb ) Visibility ( mi km ) Precip ( " mm )
12:40 am 00:40 Clear with Nearby Thunderstorms 70 21.1 65 18.3 84 84 ESE 14 22 29.85 1011 10 16 0.00 0.00
12:53 am 00:53 Clear 70 21.1 65 18.3 84 84 ESE 14 22 29.85 1011 10 16 0.00 0.00
1:53 am 01:53 Mostly Cloudy 70 21.1 65 18.3 84 84 E 10 17 29.89 1012 10 16 0.00 0.00
2:50 am 02:50 Cloudy with Nearby Thunderstorms 64 18 55 13 73 73 N 22 35 29.96 1015 10 16 0.00 0.00
2:53 am 02:53 Cloudy with Nearby Thunderstorms 64 17.8 55 12.8 73 73 N 17 28 29.95 1014 10 16 0.00 0.00
3:41 am 03:41 Cloudy with Thunderstorms 63 17.2 59 15 87 87 NNW 13 20 29.98 1015 10 16 0.00 0.00
3:53 am 03:53 Cloudy with Nearby Thunderstorms 63 17.2 60 15.6 90 90 VRB 7 11 29.94 1014 7 11 0.03 0.76
4:03 am 04:03 Windy with Storms Likely 62 16.7 60 15.6 93 93 ESE 23 37 29.87 1011 7 11 0.02 0.51
4:15 am 04:15 Partly Cloudy with Nearby Thunderstorms 63 17.2 60 15.6 90 90 ENE 17 28 29.85 1011 10 16 0.02 0.51
4:24 am 04:24 Mostly Clear with Thunderstorms 66 18.9 61 16.1 84 84 E 15 24 29.85 1011 10 16 0.02 0.51
4:39 am 04:39 Clear 67 19.4 60 15.6 79 79 NE 14 22 29.86 1011 10 16 0.02 0.51
4:53 am 04:53 Clear 66 18.9 59 15 78 78 NE 13 20 29.87 1012 10 16 0.02 0.51
5:53 am 05:53 Mostly Cloudy 67 19.4 58 14.4 73 73 ESE 9 15 29.89 1012 10 16 0.00 0.00
6:46 am 06:46 Partly Cloudy with Nearby Thunderstorms 65 18.3 58 14.4 78 78 ESE 8 13 29.91 1013 10 16 0.00 0.00
6:53 am 06:53 Sunny with Nearby Thunderstorms 65 18.3 58 14.4 78 78 E 10 17 29.90 1013 10 16 0.00 0.00
7:01 am 07:01 Sunny 65 18.3 57 13.9 76 76 E 12 19 29.92 1013 10 16 0.00 0.00
7:53 am 07:53 Mostly Cloudy 65 18.3 57 13.9 76 76 E 6 9 29.91 1013 10 16 0.00 0.00
8:53 am 08:53 Cloudy 67 19.4 56 13.3 68 68 E 8 13 29.93 1014 10 16 0.00 0.00
9:53 am 09:53 Partly Cloudy 70 21.1 57 13.9 64 64 E 14 22 29.93 1014 10 16 0.00 0.00
10:53 am 10:53 Sunny 73 22.8 59 15 62 62 E 13 20 29.93 1014 10 16 0.00 0.00
11:53 am 11:53 Partly Cloudy 75 23.9 59 15 58 58 E 13 20 29.93 1014 10 16 0.00 0.00
12:53 pm 12:53 Sunny 77 25 59 15 54 54 ESE 15 24 29.91 1013 10 16 0.00 0.00
1:53 pm 13:53 Sunny 81 27.2 59 15 47 47 ESE 15 24 29.88 1012 10 16 0.00 0.00
2:53 pm 14:53 Sunny 84 28.9 58 14.4 41 41 SE 14 22 29.87 1011 10 16 0.00 0.00
3:53 pm 15:53 Sunny 86 30 57 13.9 37 37 E 12 19 29.83 1010 10 16 0.00 0.00
4:53 pm 16:53 Sunny 88 31.1 58 14.4 36 36 E 18 30 29.79 1009 10 16 0.00 0.00
5:53 pm 17:53 Sunny 87 30.6 60 15.6 40 40 E 16 26 29.75 1008 10 16 0.00 0.00
6:53 pm 18:53 Sunny 88 31.1 60 15.6 39 39 ESE 21 33 29.74 1007 10 16 0.00 0.00
7:53 pm 19:53 Sunny 83 28.3 61 16.1 48 48 E 17 28 29.74 1007 10 16 0.00 0.00
8:53 pm 20:53 Mostly Cloudy 80 26.7 61 16.1 52 52 NE 20 31 29.77 1008 10 16 0.00 0.00
9:00 pm 21:00 Mostly Cloudy with Nearby Thunderstorms 79 26.1 61 16.1 54 54 NE 18 30 29.72 1006 10 16 0.00 0.00
9:15 pm 21:15 Mostly Cloudy 79 26.1 61 16.1 54 54 NE 20 31 29.73 1007 10 16 0.00 0.00
9:23 pm 21:23 Mostly Cloudy with Nearby Thunderstorms 79 26.1 60 15.6 52 52 NE 18 30 29.74 1007 10 16 0.00 0.00
9:38 pm 21:38 Cloudy with Strong Thunderstorms 74 23.3 63 17.2 69 69 NNE 22 35 29.80 1009 5 8 0.03 0.76
9:53 pm 21:53 Cloudy with Strong Thunderstorms 67 19.4 58 14.4 73 73 SW 28 44 29.83 1010 3 4 0.16 4.06
10:02 pm 22:02 Cloudy with Thunderstorms 64 17.8 57 13.9 78 78 S 21 33 29.86 1011 3 5 0.03 0.76
10:15 pm 22:15 Cloudy with Thunderstorms 64 17.8 60 15.6 87 87 S 18 30 29.82 1010 8 13 0.06 1.52
10:53 pm 22:53 Mostly Clear 64 17.8 58 14.4 81 81 S 25 41 29.87 1012 10 16 0.06 1.52
11:53 pm 23:53 Mostly Clear 71 21.7 54 12.2 55 55 S 23 37 29.79 1009 10 16 0.00 0.00

Powered by AerisWeather